Date String (YYYY-MM-DD hh:mm:ss) UTC,Instrument flags,Ambient pressure (hPa),Sample flow (lpm),Bypass flow (lpm),Sample temperature (°C),Ambient temperature (°C),ASC tube jacket temperature (°C),LED temperature (°C),Box temperature (°C),Sample RH (%),Span deviation,Mass concentration (μg/m³),Mass concentration (μg/m³),Mass concentration (μg/m³)
DateTimeUTC,F1_M11,P_M11,Q1_M11,Q2_M11,T1_M11,T2_M11,T3_M11,T4_M11,T5_M11,U1_M11,ZSPAN_M11,X0_M11,X2_M11,X1_M11
2021-11-15 03:00:00,,0824.2,5.00,0.00,27.2,26.1,00.0,36.2,29.0,15.5,0000.0,0019.68,0002.50,0000.57
2021-11-15 03:01:00,,0824.0,5.00,0.00,27.2,26.1,00.0,36.2,29.0,15.6,0000.0,0020.09,0002.57,0000.59
2021-11-15 03:02:00,,0823.8,4.99,0.00,27.2,26.0,00.0,36.2,28.9,15.6,0000.0,0020.54,0002.68,0000.60
2021-11-15 03:03:00,,0823.9,5.01,0.00,27.1,26.0,00.0,36.2,28.9,15.7,0000.0,0021.74,0002.83,0000.60
2021-11-15 03:04:00,,0823.9,5.00,0.00,27.1,25.9,00.0,36.2,28.9,15.6,0000.0,0018.37,0002.73,0000.58
2021-11-15 03:05:00,,0824.0,5.00,0.00,27.1,25.9,00.0,36.2,28.9,15.6,0000.0,0017.48,0002.86,0000.58
2021-11-15 03:06:00,,0823.9,4.99,0.00,27.1,25.9,00.0,36.2,28.9,15.5,0000.0,0025.74,0003.11,0000.60
2021-11-15 03:07:00,,0824.2,5.01,0.00,27.1,25.9,00.0,36.2,28.9,15.6,0000.0,0033.61,0003.33,0000.63
2021-11-15 03:08:00,,0824.1,4.98,0.00,27.1,25.9,00.0,36.2,28.9,15.5,0000.0,0032.22,0003.41,0000.65
2021-11-15 03:09:00,,0824.1,5.00,0.00,27.1,25.9,00.0,36.2,28.8,15.5,0000.0,0031.20,0003.39,0000.65
2021-11-15 03:10:00,,0823.9,5.02,0.00,27.1,25.9,00.0,36.2,28.8,15.5,0000.0,0031.84,0003.48,0000.66
2021-11-15 03:11:00,,0824.1,4.98,0.00,27.1,25.9,00.0,36.1,28.8,15.5,0000.0,0031.72,0003.54,0000.68
2021-11-15 03:12:00,,0823.9,4.99,0.00,27.1,25.9,00.0,36.1,28.8,15.5,0000.0,0031.12,0003.54,0000.68
2021-11-15 03:13:00,,0823.9,4.98,0.00,27.0,25.9,00.0,36.1,28.8,15.4,0000.0,0032.84,0003.63,0000.68
2021-11-15 03:14:00,,0824.0,5.01,0.00,27.0,25.9,00.0,36.1,28.8,15.5,0000.0,0032.20,0003.66,0000.68
2021-11-15 03:15:00,,0824.2,5.00,0.00,27.0,25.9,00.0,36.1,28.8,15.4,0000.0,0031.58,0003.73,0000.69
2021-11-15 03:16:00,,0824.1,4.99,0.00,27.0,25.9,00.0,36.1,28.8,15.3,0000.0,0032.29,0003.68,0000.68
2021-11-15 03:17:00,,0824.3,5.01,0.00,27.0,25.9,00.0,36.1,28.8,15.4,0000.0,0023.75,0003.56,0000.67
2021-11-15 03:18:00,,0824.4,4.99,0.00,27.0,25.9,00.0,36.1,28.8,15.3,0000.0,0016.10,0003.31,0000.63
2021-11-15 03:19:00,,0824.3,5.00,0.00,27.0,25.9,00.0,36.1,28.8,15.3,0000.0,0016.10,0003.20,0000.62
2021-11-15 03:20:00,,0824.2,5.00,0.00,27.0,25.9,00.0,36.1,28.8,15.2,0000.0,0015.71,0003.17,0000.62
2021-11-15 03:21:00,,0823.9,4.99,0.00,27.0,25.9,00.0,36.1,28.8,15.1,0000.0,0014.91,0003.01,0000.61
2021-11-15 03:22:00,,0824.1,5.00,0.00,27.0,25.9,00.0,36.1,28.8,15.1,0000.0,0015.94,0002.91,0000.60
2021-11-15 03:23:00,,0824.2,5.00,0.00,27.0,25.9,00.0,36.1,28.8,15.2,0000.0,0016.04,0002.87,0000.60
2021-11-15 03:24:00,,0824.2,5.00,0.00,27.0,25.9,00.0,36.0,28.8,15.1,0000.0,0013.98,0002.66,0000.59
2021-11-15 03:25:00,,0824.3,4.99,0.00,27.0,25.9,00.0,36.0,28.8,15.0,0000.0,0013.23,0002.52,0000.59
2021-11-15 03:26:00,,0824.1,5.01,0.00,27.0,25.9,00.0,36.0,28.8,15.0,0000.0,0012.99,0002.40,0000.57
2021-11-15 03:27:00,,0824.4,4.98,0.00,27.0,25.9,00.0,36.0,28.8,14.9,0000.0,0012.48,0002.38,0000.56
2021-11-15 03:28:00,,0824.1,5.00,0.00,27.0,25.9,00.0,36.0,28.8,14.9,0000.0,0013.10,0002.39,0000.55
2021-11-15 03:29:00,,0824.2,5.00,0.00,27.0,25.8,00.0,36.0,28.8,14.9,0000.0,0012.89,0002.51,0000.56
2021-11-15 03:30:00,,0824.2,5.00,0.00,27.0,25.8,00.0,36.0,28.7,14.9,0000.0,0012.80,0002.59,0000.58
2021-11-15 03:31:00,,0824.3,4.99,0.00,27.0,25.8,00.0,36.0,28.8,15.0,0000.0,0012.62,0002.58,0000.59
2021-11-15 03:32:00,,0824.2,4.99,0.00,26.9,25.9,00.0,36.0,28.8,15.0,0000.0,0012.45,0002.64,0000.59
2021-11-15 03:33:00,,0824.2,5.01,0.00,26.9,25.8,00.0,36.0,28.7,15.0,0000.0,0011.23,0002.56,0000.58
2021-11-15 03:34:00,,0824.4,5.00,0.00,26.9,25.8,00.0,36.0,28.7,15.0,0000.0,0010.58,0002.56,0000.57
2021-11-15 03:35:00,,0824.4,4.99,0.00,26.9,25.9,00.0,36.0,28.7,15.0,0000.0,0010.35,0002.56,0000.58
2021-11-15 03:36:00,,0824.2,5.00,0.00,26.9,25.9,00.0,36.0,28.7,14.9,0000.0,0009.44,0002.43,0000.57
2021-11-15 03:37:00,,0824.2,5.00,0.00,26.9,25.9,00.0,36.0,28.7,15.0,0000.0,0009.11,0002.41,0000.58
2021-11-15 03:38:00,,0824.1,4.99,0.00,26.9,25.8,00.0,36.0,28.7,15.0,0000.0,0009.99,0002.40,0000.59
2021-11-15 03:39:00,,0824.2,4.99,0.00,26.9,25.8,00.0,36.0,28.7,15.0,0000.0,0009.47,0002.41,0000.61
2021-11-15 03:40:00,,0824.1,5.01,0.00,26.9,25.8,00.0,36.0,28.7,15.0,0000.0,0009.72,0002.58,0000.63
2021-11-15 03:41:00,,0824.3,5.00,0.00,26.9,25.8,00.0,35.9,28.7,15.0,0000.0,0010.72,0002.74,0000.66
2021-11-15 03:42:00,,0824.4,4.99,0.00,26.9,25.8,00.0,35.9,28.7,15.0,0000.0,0011.39,0002.96,0000.68
2021-11-15 03:43:00,,0824.2,5.00,0.00,26.9,25.8,00.0,35.9,28.7,15.0,0000.0,0012.62,0003.16,0000.69
2021-11-15 03:44:00,,0824.4,5.02,0.00,26.9,25.8,00.0,35.9,28.7,15.0,0000.0,0012.93,0003.21,0000.70
2021-11-15 03:45:00,,0824.3,4.99,0.00,26.9,25.8,00.0,35.9,28.7,15.0,0000.0,0014.52,0003.21,0000.70
2021-11-15 03:46:00,,0824.2,5.02,0.00,26.9,25.7,00.0,35.9,28.7,15.0,0000.0,0014.59,0003.18,0000.69
2021-11-15 03:47:00,,0824.4,5.00,0.00,26.9,25.8,00.0,35.9,28.7,15.0,0000.0,0015.86,0003.21,0000.70
2021-11-15 03:48:00,,0824.2,5.00,0.00,26.9,25.8,00.0,35.9,28.7,15.0,0000.0,0016.30,0003.19,0000.70
2021-11-15 03:49:00,,0824.2,5.01,0.00,26.9,25.7,00.0,35.9,28.6,15.0,0000.0,0038.65,0003.40,0000.75
2021-11-15 03:50:00,,0824.2,5.00,0.00,26.8,25.7,00.0,35.9,28.6,15.0,0000.0,0045.00,0003.46,0000.76
2021-11-15 03:51:00,,0824.1,5.00,0.00,26.8,25.7,00.0,35.9,28.6,15.0,0000.0,0061.22,0003.60,0000.78
2021-11-15 03:52:00,,0824.2,5.00,0.00,26.8,25.6,00.0,35.9,28.6,15.0,0000.0,0078.43,0003.77,0000.79
2021-11-15 03:53:00,,0824.3,5.01,0.00,26.8,25.6,00.0,35.9,28.6,15.0,0000.0,0079.65,0003.78,0000.80
2021-11-15 03:54:00,,0824.5,4.99,0.00,26.8,25.7,00.0,35.9,28.6,15.0,0000.0,0078.83,0003.65,0000.79
2021-11-15 03:55:00,,0824.3,4.99,0.00,26.8,25.7,00.0,35.9,28.5,15.0,0000.0,0077.68,0003.61,0000.77
2021-11-15 03:56:00,,0824.3,5.00,0.00,26.8,25.7,00.0,35.9,28.6,15.0,0000.0,0076.60,0003.65,0000.79
2021-11-15 03:57:00,,0824.3,4.99,0.00,26.8,25.7,00.0,35.9,28.6,15.0,0000.0,0077.16,0003.74,0000.82
2021-11-15 03:58:00,,0824.1,5.00,0.00,26.8,25.6,00.0,35.9,28.5,15.0,0000.0,0076.18,0003.76,0000.82
2021-11-15 03:59:00,,0824.3,5.01,0.00,26.8,25.6,00.0,35.8,28.5,15.0,0000.0,0075.70,0003.82,0000.84
